Wind_Speed
21 21 21 22 22 22 22 22 21 20 20 20 19 17 16 16 16 15 14 13 13 12 12 12 12 12 11 12 12 12 13 12 12 13 13 14 14 15 15 14 14 14 15 14
21 21 21 23 22 22 22 22 21 20 20 20 20 18 17 16 16 15 15 14 14 13 13 13 13 13 13 13 13 13 14 14 13 14 14 14 14 15 15 15 14 14 15 15
20 20 22 23 23 23 23 22 21 21 21 21 21 19 18 17 16 16 15 15 15 15 14 14 14 13 14 14 14 15 14 14 14 14 14 15 14 15 15 15 14 14 15 15
21 21 22 22 22 23 22 21 21 22 22 22 22 21 18 18 17 17 17 17 17 16 15 15 15 15 14 14 15 15 15 15 15 15 15 15 15 15 15 15 15 15 15 15
20 21 21 21 21 22 21 22 22 23 23 23 23 23 19 19 19 18 18 17 17 17 16 16 16 15 15 15 15 16 16 16 16 16 15 14 15 15 16 16 15 16 16 16
21 22 22 21 22 23 23 23 24 24 24 25 23 23 20 20 20 19 19 18 18 17 17 17 17 16 16 16 16 17 17 17 16 16 16 15 16 17 17 16 16 16 17 17
22 22 23 23 24 24 24 24 25 25 25 25 23 24 22 21 20 20 19 19 19 18 17 18 18 18 18 17 17 17 18 18 17 17 17 16 17 18 18 17 17 16 17 17
24 23 23 24 25 25 25 25 26 26 25 24 24 25 22 21 20 20 20 20 20 19 19 19 18 19 19 18 18 18 18 18 18 19 18 17 19 19 18 18 18 18 18 18
24 24 24 24 25 26 26 26 25 26 27 26 26 25 23 21 20 19 19 19 20 20 20 20 20 20 21 20 19 19 19 19 19 19 19 19 19 18 17 17 18 18 18 18
23 24 24 25 25 26 26 25 25 26 26 26 27 26 23 21 21 20 19 19 20 20 21 21 22 23 23 22 21 20 18 18 18 19 20 20 19 18 18 18 19 19 19 19
24 24 24 26 26 26 26 26 26 27 27 27 28 26 23 21 21 21 21 21 21 21 21 22 23 24 24 23 22 20 19 19 19 19 19 19 18 19 19 20 20 20 20 21
24 25 25 26 27 28 29 28 28 28 28 28 28 27 23 22 22 22 22 22 22 23 23 23 23 24 23 22 21 21 20 20 20 20 19 18 19 20 20 21 21 21 20 20
25 26 27 28 29 29 30 30 29 29 30 30 30 28 25 24 24 24 23 23 23 23 24 24 24 23 22 21 21 21 20 19 20 21 20 19 19 19 20 20 21 20 19 19
27 28 28 28 28 29 30 30 30 31 32 31 31 30 27 26 25 24 23 23 23 24 24 24 24 23 23 22 21 21 20 20 20 20 20 19 18 18 19 19 19 18 17 17
28 29 29 28 29 30 31 32 32 32 31 32 31 31 29 28 27 26 25 24 25 25 24 24 24 24 24 23 22 21 21 21 21 20 19 19 19 18 18 18 18 17 16 16
27 28 29 29 29 31 32 33 33 32 32 31 30 29 29 29 29 28 27 26 26 25 25 25 24 24 24 23 22 21 22 21 21 20 20 20 20 19 19 19 19 18 16 16
26 26 27 28 29 31 33 32 32 32 32 32 31 29 28 29 29 28 28 27 26 26 25 26 26 25 24 24 22 21 21 20 21 20 20 20 20 20 19 19 18 17 17 17
25 26 27 28 28 31 30 30 32 33 33 32 32 31 30 29 29 29 28 27 27 26 26 26 25 25 24 24 23 22 20 21 20 21 20 21 20 19 18 18 18 18 18 18
26 26 27 28 29 29 29 30 31 32 33 32 33 32 31 29 29 28 28 28 28 27 27 27 26 25 24 24 24 23 21 21 21 21 21 21 21 20 19 19 19 18 18 18
26 27 28 28 29 30 29 28 29 30 31 30 30 30 30 29 29 27 27 27 27 27 28 27 27 26 26 24 24 24 22 22 22 22 21 21 21 21 20 20 19 19 19 18
24 25 26 27 28 29 28 28 28 29 28 28 29 29 29 29 28 27 27 27 27 27 27 27 28 27 26 25 25 24 23 23 22 22 22 21 21 20 20 20 19 19 19 18
23 23 24 26 27 27 25 26 27 27 27 28 28 28 28 28 28 28 27 28 28 28 29 29 28 28 28 27 26 25 24 23 23 23 22 22 21 21 21 20 20 20 19 19
22 22 23 24 24 24 24 25 26 27 28 28 28 28 28 28 28 28 28 28 28 28 28 28 29 28 27 26 26 25 25 24 24 24 23 22 22 21 21 21 21 20 19 19
22 22 23 23 23 23 24 24 25 27 28 27 27 27 28 28 27 26 26 27 28 27 27 27 27 27 26 26 26 26 26 26 26 25 23 23 22 22 22 22 21 20 20 19
22 22 23 23 23 23 23 23 23 23 24 25 25 25 26 26 26 26 26 27 27 26 27 27 27 26 27 27 26 26 26 26 26 25 24 23 23 23 23 22 21 21 20 19
22 23 22 22 22 22 22 22 22 23 23 24 24 24 24 24 24 25 26 26 26 26 26 26 26 26 26 26 26 26 26 26 26 26 25 24 23 23 23 23 22 21 20 19
Wind_Direction
226 225 227 229 231 232 235 235 234 235 239 243 249 251 252 256 262 263 266 272 279 286 287 287 290 291 295 297 300 305 304 297 296 297 299 298 297 299 298 295 297 299 302 302
227 227 228 230 231 232 234 235 235 235 241 245 250 252 252 255 259 262 267 272 276 282 282 284 286 289 292 291 293 299 302 298 297 296 297 295 296 300 297 295 295 298 305 303
228 229 231 233 233 233 235 237 238 240 242 245 249 248 249 253 258 261 264 270 272 275 276 279 281 287 288 288 289 292 298 300 298 296 294 294 298 298 297 296 295 297 300 304
226 226 231 233 234 235 235 238 239 238 241 244 249 250 248 254 258 262 265 267 271 272 273 275 279 282 284 286 285 286 291 294 300 299 297 296 298 301 300 299 296 296 298 300
226 226 230 233 234 235 235 236 239 239 242 245 250 255 251 255 257 260 264 267 271 271 270 272 275 278 282 286 287 287 286 290 293 296 300 298 302 303 301 299 292 291 292 295
230 229 231 231 232 235 237 237 240 241 243 247 250 256 257 256 258 259 263 267 269 268 267 268 271 274 279 284 286 286 287 290 291 293 300 302 303 303 302 301 294 291 289 291
230 230 231 232 233 236 239 240 241 243 245 249 252 256 258 259 261 262 263 265 265 266 266 266 269 274 280 282 283 283 286 289 289 292 299 299 300 301 301 300 298 292 290 291
232 231 233 233 235 238 241 244 247 249 251 253 254 256 259 260 263 263 262 264 264 264 267 269 271 276 279 280 282 284 286 290 292 294 296 296 299 299 300 301 301 293 289 289
235 233 233 234 235 238 240 242 245 250 253 255 255 258 258 258 261 259 260 263 266 266 268 271 273 277 279 280 282 284 285 288 293 294 295 295 298 297 299 301 301 295 290 290
239 238 235 236 236 238 241 245 246 248 253 257 258 260 260 258 259 259 261 265 267 269 270 273 275 277 280 280 281 282 283 287 291 291 292 292 293 293 296 298 300 297 291 289
242 243 239 238 238 239 242 244 247 249 253 257 262 263 262 262 262 262 263 267 268 270 275 276 276 277 280 281 281 279 279 282 287 292 292 291 290 291 295 298 298 295 291 288
245 245 243 240 241 242 244 246 249 251 255 258 262 264 266 267 264 263 265 267 269 272 274 274 276 276 278 279 279 277 278 281 284 289 291 289 290 291 295 298 298 298 293 287
247 248 247 243 242 244 247 248 251 254 256 258 260 263 267 268 268 268 267 266 268 271 272 275 278 277 278 277 277 278 277 279 283 287 287 287 289 291 295 297 298 299 295 290
248 248 248 248 248 248 249 251 253 255 257 258 260 263 264 266 268 269 268 266 266 269 271 274 277 278 279 279 277 278 275 277 280 285 286 286 290 293 296 296 298 299 296 293
250 249 250 249 248 250 251 252 253 254 257 259 262 263 263 265 265 266 267 267 268 270 272 273 275 276 278 279 277 274 272 274 277 281 285 287 288 291 294 293 295 296 295 293
252 251 251 251 250 251 253 253 253 254 256 259 262 263 263 264 264 265 266 267 268 270 271 273 274 276 278 278 276 274 272 272 275 279 284 287 288 291 292 292 292 292 291 289
254 254 254 254 254 254 254 252 255 256 256 258 259 262 263 263 264 265 265 266 269 270 271 273 274 278 279 279 277 275 273 273 274 278 282 284 286 288 291 290 290 290 290 287
254 254 256 257 254 256 257 254 255 256 256 256 258 260 262 264 263 263 263 264 266 267 269 272 274 276 278 279 278 276 272 274 275 277 280 284 285 287 289 290 289 287 287 286
254 254 254 257 259 259 258 258 257 256 255 256 258 260 261 262 262 263 264 265 264 265 267 269 272 276 278 278 278 276 274 275 276 277 279 282 282 283 284 286 287 287 286 285
254 256 256 258 260 261 262 260 259 258 258 257 258 260 260 260 261 260 260 261 263 267 268 268 270 274 276 277 275 274 274 275 275 276 277 279 279 281 283 284 284 285 284 283
257 258 258 259 262 264 264 261 259 258 259 259 259 259 259 258 259 260 259 260 263 266 269 270 271 273 275 275 273 273 273 273 274 276 276 276 276 279 281 282 282 282 283 283
258 260 261 262 262 264 264 263 260 259 259 260 259 258 259 258 258 260 261 262 264 267 268 269 270 273 273 272 270 270 271 272 273 275 276 277 276 278 280 282 281 280 280 281
259 261 262 262 264 265 263 263 261 258 258 259 258 258 259 259 261 264 265 265 266 269 269 268 268 271 272 268 267 268 269 270 271 272 274 275 275 275 278 279 280 279 278 279
259 263 264 262 263 263 263 265 263 259 256 256 257 258 259 261 262 263 265 267 268 268 268 268 268 270 269 266 266 268 269 270 270 270 271 272 273 273 275 278 279 278 278 278
259 263 265 262 261 260 261 263 263 261 257 255 256 258 260 262 263 264 266 267 267 265 264 265 266 267 268 267 267 268 269 270 269 269 269 271 271 271 272 274 275 276 277 276
261 262 263 262 261 259 258 260 263 260 258 258 258 260 260 262 264 266 267 266 264 263 263 264 265 266 266 267 267 268 268 268 268 267 267 268 269 269 270 270 271 273 273 273
Height
5835 5839 5841 5843 5846 5848 5850 5853 5856 5858 5859 5860 5861 5862 5864 5864 5865 5866 5866 5867 5867 5868 5867 5867 5867 5866 5865 5864 5863 5862 5861 5860 5859 5858 5858 5857 5856 5854 5853 5852 5851 5850 5849 5847
5833 5835 5838 5839 5841 5844 5846 5849 5852 5855 5855 5856 5857 5859 5861 5862 5862 5863 5864 5864 5865 5865 5864 5864 5864 5863 5862 5862 5860 5860 5858 5857 5857 5855 5854 5853 5852 5851 5850 5849 5848 5847 5846 5845
5829 5833 5833 5835 5838 5840 5843 5846 5848 5850 5851 5852 5854 5856 5858 5858 5859 5860 5860 5861 5861 5861 5861 5860 5860 5860 5860 5859 5858 5857 5856 5855 5854 5852 5851 5850 5849 5848 5847 5845 5844 5844 5843 5842
5825 5828 5829 5831 5834 5837 5840 5842 5844 5845 5847 5848 5850 5851 5854 5855 5856 5856 5857 5857 5857 5857 5857 5857 5857 5857 5856 5856 5854 5854 5853 5852 5850 5849 5848 5847 5846 5845 5843 5842 5841 5840 5839 5838
5822 5824 5826 5828 5831 5833 5836 5838 5839 5841 5842 5844 5845 5846 5851 5851 5852 5853 5853 5853 5853 5853 5853 5853 5853 5853 5853 5852 5851 5850 5849 5848 5847 5846 5845 5844 5842 5841 5840 5838 5837 5836 5835 5834
5818 5821 5823 5825 5827 5829 5831 5833 5835 5836 5837 5839 5842 5842 5845 5847 5848 5848 5849 5849 5848 5849 5849 5849 5849 5849 5849 5848 5847 5846 5845 5845 5844 5843 5841 5840 5838 5837 5836 5834 5833 5832 5831 5830
5814 5817 5819 5821 5823 5825 5827 5829 5830 5831 5833 5835 5838 5838 5840 5842 5843 5843 5844 5844 5844 5844 5844 5845 5845 5844 5844 5844 5843 5842 5841 5840 5840 5839 5838 5836 5835 5834 5832 5830 5829 5828 5827 5825
5809 5812 5814 5816 5819 5821 5823 5825 5827 5828 5829 5831 5832 5833 5836 5837 5838 5838 5839 5839 5839 5839 5840 5840 5840 5840 5839 5839 5838 5837 5836 5836 5835 5834 5833 5832 5831 5830 5828 5826 5825 5823 5821 5820
5805 5808 5810 5812 5814 5816 5817 5819 5821 5822 5823 5824 5826 5828 5830 5832 5832 5833 5834 5834 5834 5835 5835 5835 5835 5834 5834 5834 5833 5832 5832 5831 5830 5829 5829 5828 5827 5825 5824 5822 5820 5818 5817 5815
5800 5802 5805 5807 5809 5810 5813 5814 5816 5817 5817 5818 5820 5822 5825 5827 5828 5829 5829 5829 5830 5830 5830 5829 5829 5829 5829 5828 5828 5827 5827 5826 5826 5825 5824 5823 5822 5820 5819 5817 5815 5813 5812 5810
5795 5797 5800 5801 5803 5805 5807 5809 5810 5812 5813 5814 5814 5819 5820 5822 5823 5824 5824 5824 5824 5824 5824 5824 5824 5823 5823 5822 5821 5821 5821 5821 5821 5820 5819 5818 5817 5815 5814 5812 5810 5808 5806 5804
5789 5791 5793 5795 5798 5799 5801 5803 5805 5807 5808 5808 5809 5814 5815 5816 5816 5817 5818 5818 5818 5819 5819 5819 5818 5817 5817 5816 5816 5816 5816 5816 5815 5815 5814 5813 5812 5810 5809 5806 5804 5802 5799 5798
5783 5785 5786 5788 5792 5793 5795 5797 5799 5800 5801 5802 5803 5808 5808 5809 5810 5811 5812 5812 5812 5813 5813 5812 5812 5811 5811 5810 5810 5810 5810 5810 5810 5809 5809 5808 5807 5805 5804 5801 5799 5796 5794 5792
5777 5778 5780 5783 5785 5787 5788 5790 5792 5793 5794 5795 5797 5800 5802 5803 5804 5804 5805 5806 5806 5806 5807 5806 5806 5805 5805 5805 5805 5804 5804 5804 5804 5804 5803 5802 5801 5800 5798 5796 5794 5792 5789 5788
5770 5771 5773 5775 5777 5779 5781 5783 5784 5786 5787 5789 5791 5793 5795 5796 5797 5797 5798 5799 5799 5800 5800 5800 5800 5799 5799 5799 5799 5798 5798 5799 5799 5799 5798 5797 5797 5795 5794 5792 5790 5788 5786 5784
5763 5764 5766 5768 5769 5771 5772 5774 5776 5779 5780 5782 5783 5785 5787 5788 5789 5790 5791 5792 5793 5793 5793 5793 5794 5794 5794 5793 5793 5793 5793 5793 5793 5793 5793 5792 5791 5790 5788 5787 5785 5784 5782 5781
5756 5758 5759 5760 5762 5762 5763 5767 5769 5771 5773 5775 5776 5779 5779 5780 5781 5782 5784 5785 5786 5787 5787 5787 5787 5787 5787 5787 5787 5787 5786 5786 5787 5787 5787 5786 5785 5784 5783 5781 5780 5779 5778 5777
5750 5751 5752 5753 5754 5754 5759 5760 5761 5763 5765 5767 5768 5770 5772 5773 5774 5775 5776 5777 5778 5779 5780 5780 5780 5780 5780 5780 5780 5780 5780 5781 5781 5781 5781 5780 5779 5778 5777 5776 5775 5774 5773 5771
5743 5744 5744 5745 5745 5746 5750 5751 5753 5755 5757 5759 5761 5762 5764 5765 5766 5768 5769 5770 5771 5772 5772 5772 5772 5773 5773 5773 5773 5773 5774 5774 5774 5775 5775 5774 5773 5773 5771 5770 5769 5768 5767 5766
5735 5736 5738 5738 5738 5739 5743 5744 5745 5747 5748 5751 5753 5754 5756 5757 5759 5761 5761 5762 5763 5764 5764 5765 5765 5765 5766 5766 5766 5766 5767 5767 5768 5768 5768 5768 5767 5766 5765 5765 5763 5762 5761 5760
5728 5729 5730 5730 5731 5732 5734 5735 5737 5739 5742 5743 5744 5746 5748 5749 5751 5753 5753 5754 5755 5756 5757 5757 5758 5758 5758 5759 5759 5759 5760 5761 5761 5761 5761 5761 5760 5760 5759 5758 5757 5756 5755 5754
5721 5722 5723 5723 5723 5726 5726 5727 5729 5731 5732 5734 5735 5737 5739 5741 5742 5744 5745 5746 5747 5748 5749 5749 5750 5750 5751 5751 5751 5752 5753 5753 5753 5754 5753 5753 5753 5753 5752 5752 5751 5750 5749 5748
5715 5716 5716 5717 5719 5719 5719 5720 5721 5722 5723 5725 5727 5729 5731 5733 5734 5736 5737 5738 5739 5739 5740 5741 5741 5742 5742 5743 5743 5744 5745 5745 5746 5746 5746 5746 5746 5746 5745 5745 5744 5744 5743 5742
5709 5709 5709 5710 5711 5712 5712 5713 5713 5713 5714 5717 5719 5722 5724 5725 5726 5727 5729 5729 5730 5731 5732 5732 5733 5734 5734 5735 5735 5736 5737 5737 5738 5739 5739 5739 5739 5739 5738 5738 5737 5737 5736 5736
5702 5702 5702 5703 5704 5705 5705 5706 5706 5706 5708 5710 5712 5714 5716 5717 5718 5719 5720 5721 5722 5723 5723 5724 5725 5725 5726 5726 5727 5728 5728 5729 5730 5730 5731 5731 5731 5731 5731 5731 5730 5730 5730 5729
5696 5696 5696 5697 5698 5698 5699 5700 5700 5701 5702 5704 5706 5707 5708 5709 5710 5711 5712 5712 5713 5714 5715 5716 5716 5717 5718 5718 5718 5719 5720 5721 5721 5722 5723 5723 5723 5723 5723 5723 5723 5723 5723 5723